Simultaneous Nadir Overpasses (SNOs) Predictions

Prediction of SNOs between GOES-17 and TERRA Satellite Orbit:

Table of predicted SNOs for the next 14.0 days since TLE Epoch: 9/26/2020
Index Date Time (GOES-17) GOES-17 Lat,Lon TERRA Lat,Lon Distance(km) Time Diff (sec)
1 09/26/2020 07:43:02 0.05,-137.21 -0.07,-137.82 69.77 80
2 09/28/2020 07:28:10 0.05,-137.20 0.52,-134.86 265.81 80
3 09/28/2020 19:49:25 -0.05,-137.20 0.55,-140.02 321.17 80
4 09/30/2020 19:39:55 -0.04,-137.19 -0.10,-137.07 14.43 80
5 10/02/2020 19:27:43 -0.04,-137.18 -0.68,-134.11 348.97 80
6 10/03/2020 07:49:06 0.04,-137.18 -0.44,-139.30 241.37 80
7 10/05/2020 07:34:15 0.04,-137.16 0.21,-136.34 92.70 80
8 10/05/2020 19:55:30 -0.04,-137.15 0.91,-141.49 494.90 80
9 10/07/2020 07:22:04 0.04,-137.13 0.81,-133.38 425.96 80
10 10/07/2020 19:43:19 -0.04,-137.12 0.26,-138.54 161.86 80
11 10/09/2020 19:33:47 -0.03,-137.08 -0.33,-135.58 170.37 80
